sat.trackr.live / text

‹ back to catalog

STARLINK-1893

NORAD 46786 · 2020-074AZ

PAYLOAD ACTIVE UNKNOWN

§ Identity

Operator
Country
US
Launch date
2020-10-24
Launch site
AFETR
Launch vehicle
Mass (kg)
RCS (m²)

Purposes: comms

External: N2YO · Heavens-Above · Gunter

§ Orbital elements

Epoch: 2026-05-24T13:54:56.918016Z

Period
92.12 min
Inclination
53.0447°
Eccentricity
0.0003150
Mean motion
15.63232627 rev/d
Perigee alt
376.2 km
Apogee alt
380.5 km
Semi-major
6,756.5 km
B*
2.9988e-4
RAAN
256.5685°
Arg perigee
299.6149°
Mean anomaly
60.4550°
Rev number
30,930

§ Raw data

STARLINK-18931 46786U 20074AZ  26144.57982544  .00027538  00000+0  29988-3 0  99982 46786  53.0447 256.5685 0003150 299.6149  60.4550 15.63232627309304

JSON: /api/v1/satellites/46786 · /tle

For live sub-satellite position, see the globe view (requires WebGL).

§ Visibility from observer

Set your observer location to see the next 7 days of passes ≥ 10°. The values pass through the URL so the page stays shareable.

No JS? Fill the form by hand. The geolocation button needs JavaScript.